Location: Cahas Mountain Overlook
(37.0833°N, 80.1000°W)
Time: 11:36:33
(UTC-04:00)

A-11 Canister half - Pass Details

Date: 11 February 2026
Orbit: 1524 x 1683 km, 47.3° (Epoch: 16 March)

Event Time Altitude Azimuth Distance (km) Brightness Sun altitude
Rises 20:30:44 0° 273° (W) 4,678 12.7 -31.3°
Reaches altitude 10° 20:33:59 10° 279° (W) 3,690 11.9 -31.9°
Maximum altitude 20:42:50 47° 352° (N) 1,949 9.5 -33.7°
Enters shadow 20:44:50 42° 23° (NNE) 2,079 9.5 -34.1°
